Regional Weather Roundup
Issued by NWS

Home | Current Version | Previous Version | Graphics & Text | Print | Product List | Glossary On
Versions: 1 2 3 4 5 6 7 8 9 10 11 12 13 14 15 16 17 18 19 20 21 22 23 24 25 26 27 28 29 30 31 32 33 34 35 36 37 38 39 40 41 42 43 44 45 46 47 48 49 50
000
ASUS43 KIND 181800
RWRIN

WEATHER ROUNDUP FOR INDIANA
NATIONAL WEATHER SERVICE INDIANAPOLIS IN
200 PM EDT FRI AUG 18 2017

NOTE: "FAIR" INDICATES FEW OR NO CLOUDS BELOW 12,000 FEET WITH NO
SIGNIFICANT WEATHER AND/OR OBSTRUCTIONS TO VISIBILITY.

* - STATION DOES NOT REPORT WEATHER SUCH AS PRECIPITATION OR FOG.

+ - STATION NOT QUALITY CONTROLLED BY THE NATIONAL WEATHER SERVICE.
    USE DATA WITH CAUTION...ESPECIALLY DEWPOINT AND RELATIVE
    HUMIDITY OBSERVATIONS.

INZ001>003-010>013-019-020-181900-
NORTHWEST INDIANA

CITY           SKY/WX    TMP DP  RH WIND       PRES   REMARKS
GARY /AIRPORT/ PTSUNNY   79  57  47 W12       29.88F
MICHIGAN CITY+ MOSUNNY   73  63  68 NW6       29.89S
MONTICELLO +   PTSUNNY   79  62  55 W13       29.89F
6HR MIN TEMP:  64; 6HR MAX TEMP:  79;

RENSSELAER +   MOSUNNY   77  59  53 W10       29.90F

$$

LMZ046-743>745-181900-
SOUTHERN LAKE MICHIGAN

STATION/POSITION TIME  TEMP    WIND        PRES    WAVE
                       AIR SEA DIR/SP/G            HT
                 (UTC) (F)     (DEG/KT/KT) (MB)    (FT)
BURNS HARBOR     1740   72     320/  8/ 11 1012.2F
MICHIGAN CITY    1730   71     290/  9/ 10   N/A
5NW MICH CITY    1750   71 74  300/  8/ 12   N/A     3

$$

INZ004-005-014>016-021>024-181900-
NORTH CENTRAL INDIANA

CITY           SKY/WX    TMP DP  RH WIND       PRES   REMARKS
ELKHART        PTSUNNY   73  61  64 W14       29.87F
GOSHEN         PTSUNNY   76  61  59 W20       29.87S
6HR MIN TEMP:  67; 6HR MAX TEMP:  77;

PERU/GRISSOM   MOSUNNY   79  65  63 W13       29.89F
6HR MIN TEMP:  66; 6HR MAX TEMP:  79;

SOUTH BEND     CLOUDY    75  65  70 W12       29.88S
6HR MIN TEMP:  65; 6HR MAX TEMP:  75;

WARSAW +       MOSUNNY   75  63  64 NW10      29.88F

$$

INZ006>009-017-018-025>027-181900-
NORTHEAST INDIANA

CITY           SKY/WX    TMP DP  RH WIND       PRES   REMARKS
FORT WAYNE     PTSUNNY   76  63  64 W15       29.88S
6HR MIN TEMP:  67; 6HR MAX TEMP:  77;

KENDALLVILLE + CLOUDY    74  62  67 W12G20    29.88R

$$

INZ028-029-035-036-043>045-051>053-181900-
WEST CENTRAL INDIANA

CITY           SKY/WX    TMP DP  RH WIND       PRES   REMARKS
LAFAYETTE      MOSUNNY   79  64  60 W12       29.90S
6HR MIN TEMP:  64; 6HR MAX TEMP:  80;

TERRE HAUTE    MOSUNNY   82  63  52 W12G22    29.94F
6HR MIN TEMP:  65; 6HR MAX TEMP:  83;


$$

INZ030>032-037>040-046>048-054>057-064-065-181900-
CENTRAL INDIANA

CITY           SKY/WX    TMP DP  RH WIND       PRES   REMARKS
ANDERSON       PTSUNNY   77  63  61 MISG      29.93S
GREENWOOD *+   MOSUNNY   80  62  53 W8G18     29.94S
6HR MIN TEMP:  67; 6HR MAX TEMP:  80;

INDIANAPOLIS   PTSUNNY   81  62  52 W15G21    29.92F
6HR MIN TEMP:  67; 6HR MAX TEMP:  83;

-EAGLE CREEK   MOSUNNY   81  62  52 W10G20    29.91F
6HR MIN TEMP:  68; 6HR MAX TEMP:  82;

KOKOMO +       PTSUNNY   77  66  68 W15       29.91F
6HR MIN TEMP:  67; 6HR MAX TEMP:  78;

MT COMFORT *+  PTSUNNY   79  63  57 W15       29.93S
SHELBYVILLE    PTSUNNY   81  62  52 W12       29.92S
6HR MIN TEMP:  69; 6HR MAX TEMP:  82;


$$

INZ033-034-041-042-049-050-058-059-181900-
EAST CENTRAL INDIANA

CITY           SKY/WX    TMP DP  RH WIND       PRES   REMARKS
MUNCIE         PTSUNNY   79  63  57 W13       29.91S
6HR MIN TEMP:  69; 6HR MAX TEMP:  82;

RICHMOND +     PTSUNNY   77  63  61 W14G22    29.93S HAZE

$$

INZ060-061-067>069-081>083-085>088-181900-
SOUTHWEST INDIANA

CITY           SKY/WX    TMP DP  RH WIND       PRES   REMARKS
EVANSVILLE     MOSUNNY   85  62  46 W13       29.97F
6HR MIN TEMP:  70; 6HR MAX TEMP:  85;

HUNTINGBURG +  PTSUNNY   83  66  56 W10       29.97S
6HR MIN TEMP:  69; 6HR MAX TEMP:  83;


$$

INZ062-063-066-070>080-084-089>092-181900-
SOUTH CENTRAL AND SOUTHEAST INDIANA

CITY           SKY/WX    TMP DP  RH WIND       PRES   REMARKS
BLOOMINGTON    PTSUNNY   83  62  49 W12G21    29.94F
6HR MIN TEMP:  67; 6HR MAX TEMP:  83;

MADISON *+     MOSUNNY   82  61  47 W13       29.97S
SEYMOUR +      PTSUNNY   86  63  45 W13G21    29.94R

$$





USA.gov is the U.S. government's official web portal to all federal, state and local government web resources and services.